LEMUR-2-DAYWZAGOODDAY (46501 NORAD) Tracking and Keplerian Element Data

This shows tracking and keplerian element data for the satellite.

Feedback or suggestion? Click here.




ElementValue
Catalog46501
NameLEMUR-2-DAYWZAGOODDAY
Epoch Orbit476
Epoch Day304.78709673
Epoch Year2020
RAAN237.9191
Inclination97.6667
Eccentricity0.0012539
Argument of Perigee135.7655
Mean Anonmoly224.4599
Mean Motion15.02161084
Decay Rate5.89E-06
L11 46501U 20068R 20304.78709673 .00000589 00000-0 49317-4 0 9998
L22 46501 97.6667 237.9191 0012539 135.7655 224.4599 15.02161084 4763

Live tracking and technical data element details for LEMUR-2-DAYWZAGOODDAY (NORAD 46501). LEMUR-2-DAYWZAGOODDAY can be tracked NOW for your location showing map with azimuth and elevation plus other details from your city location.

Track the satellite on the map from your city or location and see movement details for azimuth, elevation, latitude, longitude, range, height, and movement on the map or in text.







IsCatalogInMostPopularTable: catalog: 46501, numindb: 8
Update: records affected: 1



GetName: 46501 LEMUR-2-DAYWZAGOODDAY

Hit Count: updated at: Sat, 31 Oct 2020 10:15:37 GMT